www.pogodaiklimat.ru

Погода и климат >> Архив погоды >> Норвегия >> Юввассу


ПОГОДА в Юввассу

  • Прогноз погоды в Юввассу
  • Монитор погоды в Юввассу

АРХИВ ПОГОДЫ в Юввассу

Время (UTC), дата Ветер
(напр.,м/с)
 
Видим.   Явления Облачность Т
(С)
Тd
(С)
f
(%)
Тe
(С)
Тes
(С)
Комфортность P
(гПа)
Po
(гПа)
Тmin
(С)
Tmax
(С)
R
(мм)
R24
(мм)
S
(см)
16 15.04 Ю 5-6
{6}
н/о н/о -1.1 -6 -6 1031.9 818.3
17 15.04 Ю 5-6
{6}
н/о н/о -2.7 -8 -8 1032.9 818.1
18 15.04 ЮВ 5-6
{9}
н/о н/о -3.1 -8 -8 1033.0 817.9 -3.3 +0.8
19 15.04 ЮВ 7-5
{9}
н/о н/о -4.4 -11 -11 1034.4 818.0
20 15.04 ЮВ 7-9
{10}
н/о н/о -4.8 -12 -12 1034.7 818.0
21 15.04 ЮВ 6-12
{12}
н/о н/о -5.7 -12 -12 1035.5 817.9
22 15.04 Ю 8-9
{11}
н/о н/о -5.8 -13 -13 1035.2 817.6
23 15.04 Ю 8-11
{12}
н/о н/о -5.7 -13 -13 1035.1 817.6
00 16.04 Ю 8-10
{12}
н/о н/о -6.4 -14 -14 1035.8 817.6
01 16.04 Ю 7-11
{11}
н/о н/о -5.7 -13 -13 1035.0 817.7
02 16.04 Ю 7-9
{9}
н/о н/о -5.5 -13 -13 1034.6 817.5
03 16.04 ЮВ 7-9
{9}
н/о н/о -5.4 -12 -12 1034.7 817.4
04 16.04 ЮВ 6-8
{8}
н/о н/о -5.5 -12 -12 1034.9 817.6
05 16.04 ЮВ 4-6
{6}
н/о н/о -5.8 -11 -11 1035.1 817.6
06 16.04 ЮВ 4-5
{11}
н/о н/о -3.9 -9 -9 1033.4 817.6 -6.7 -3.1 116
07 16.04 ЮВ 5-5
{7}
н/о н/о -2.6 -8 -8 1032.3 817.6
08 16.04 Ю 7-8
{8}
н/о н/о -2.2 -8 -8 1031.8 817.5
09 16.04 ЮВ 8-8
{9}
н/о н/о -1.1 -7 -7 1031.0 817.6
10 16.04 ЮВ 8-10
{10}
н/о н/о -1.7 -8 -8 1031.7 817.8
11 16.04 ЮВ 8-10
{10}
н/о н/о -1.1 -7 -7 1031.0 817.6
12 16.04 ЮВ 8-9
{11}
н/о н/о -1.0 -7 -7 1030.9 817.6
13 16.04 ЮВ 8-9
{9}
н/о н/о -1.4 -8 -8 1031.5 817.8
14 16.04 ЮВ 7-9
{10}
н/о н/о -1.5 -7 -7 1031.3 817.4
15 16.04 ЮВ 6-8
{9}
н/о н/о -1.7 -7 -7 1030.8 817.1
16 16.04 ЮВ 7-9
{10}
н/о н/о -2.0 -8 -8 1030.6 816.8
17 16.04 ЮВ 4-10
{10}
н/о н/о -3.0 -7 -7 1031.7 816.9
18 16.04 ЮВ 9-7
{12}
н/о н/о -3.6 -11 -11 1031.7 816.5 -3.8 -0.3
19 16.04 ЮВ 10-13
{14}
н/о н/о -4.7 -13 -13 1032.7 816.5
20 16.04 ЮВ 12-13
{15}
н/о н/о -5.2 -14 -14 1033.3 816.7
21 16.04 ЮВ 11-14
{15}
н/о н/о -5.8 -15 -15 1034.1 816.8
22 16.04 Ю 12-13
{13}
н/о н/о -6.6 -16 -16 1034.1 816.4
23 16.04 Ю 10-12
{12}
н/о н/о -6.7 -16 -16 1034.6 816.6
00 17.04 Ю 7-11
{15}
н/о н/о -7.2 -15 -15 1035.4 816.8
01 17.04 ЮВ 6-9
{9}
н/о н/о -6.9 -14 -14 1035.2 816.9
02 17.04 ЮВ 5-7
{7}
н/о н/о -7.9 -15 -15 1036.1 816.9
03 17.04 Ю 7-6
{8}
н/о н/о -8.1 -16 -16 1035.8 816.7
04 17.04 Ю 6-8
{8}
н/о н/о -9.8 -18 -18 1037.6 816.7
05 17.04 Ю 7-8
{8}
н/о н/о -9.1 -17 -17 1037.2 816.9
06 17.04 Ю 9-9
{11}
н/о н/о -7.1 -16 -16 1035.2 816.8 -10.0 -3.6 116
07 17.04 ЮВ 7-10
{10}
н/о н/о -6.2 -14 -14 1034.9 817.2
08 17.04 Ю 7-8
{8}
н/о н/о -5.4 -12 -12 1034.8 817.6
09 17.04 ЮВ 5-8
{8}
н/о н/о -5.4 -11 -11 1035.4 818.1
10 17.04 ЮВ 7-7
{9}
н/о н/о -4.8 -12 -12 1034.7 818.1
11 17.04 Ю 9-10
{11}
н/о н/о -3.7 -11 -11 1034.1 818.2
12 17.04 Ю 7-11
{11}
н/о н/о -3.1 -9 -9 1033.9 818.5
13 17.04 Ю 7-12
{12}
н/о н/о -3.4 -10 -10 1034.0 818.5
14 17.04 Ю 8-10
{11}
н/о н/о -3.8 -11 -11 1034.0 818.3
15 17.04 Ю 4-10
{10}
н/о н/о -2.9 -7 -7 1034.1 818.9
16 17.04 Ю 6-5
{7}
н/о н/о -3.7 -10 -10 1034.9 818.9
17 17.04 Ю 6-6
{8}
н/о н/о -4.0 -10 -10 1034.9 818.7
18 17.04 СЗ 1-7
{12}
н/о н/о -4.7 -6 -6 1035.9 819.1 -7.2 -2.4
19 17.04 ЮВ 1-1
{3}
н/о н/о -4.8 -6 -6 1036.5 819.5
20 17.04 Ю 1-3
{4}
н/о н/о -5.2 -6 -6 1037.3 819.7
21 17.04 СЗ 1-5
{5}
н/о н/о -5.2 -6 -6 1037.6 820.0
22 17.04 Ю 3-1
{4}
н/о н/о -5.5 -10 -10 1038.1 820.2
23 17.04 Ю 3-3
{4}
н/о н/о -5.3 -9 -9 1038.2 820.4
00 18.04 штиль 0-3
{5}
н/о н/о -5.3 -5 -5 1038.4 820.5
01 18.04 штиль 0-1
{1}
н/о н/о -4.5 -4 -4 1037.6 820.5
02 18.04 Ю 1
{2}
н/о н/о -3.8 -5 -5 1037.1 820.6
03 18.04 штиль 0-3
{3}
н/о н/о -4.6 -4 -4 1037.8 820.6
04 18.04 Ю 3-2
{5}
н/о н/о -4.7 -9 -9 1038.0 820.5
05 18.04 С 1-5
{5}
н/о н/о -2.4 -3 -3 1036.3 820.9
06 18.04 С 1-3
{5}
н/о н/о -2.0 -3 -3 1036.4 821.3 -5.9 -1.6 116
07 18.04 -2
{2}
н/о н/о -0.4 1035.6 821.7
08 18.04 В 1-3
{3}
н/о н/о +0.7 +1 +1 1034.9 821.9
09 18.04 С 1-2
{2}
н/о н/о +0.3 0 0 1035.8 822.3
10 18.04 СВ 1-2
{2}
н/о н/о +1.1 +1 +1 1035.4 822.6
11 18.04 СВ 2-1
{2}
н/о н/о +1.2 -1 -1 1035.5 822.7
12 18.04 С 1-2
{3}
н/о н/о +3.2 +3 +3 1034.1 822.9
13 18.04 З 3-2
{6}
н/о н/о +2.3 -0 -0 1034.8 822.9
14 18.04 З 3-4
{6}
н/о н/о +2.8 0 0 1034.5 823.0
15 18.04 ЮЗ 2-6
{8}
н/о н/о +1.7 0 0 1035.5 823.1
16 18.04 В 1-4
{4}
н/о н/о +1.2 +1 +1 1036.0 823.1
17 18.04 ЮЗ 4-2
{6}
н/о н/о +1.5 -2 -2 1035.6 823.1
18 18.04 З 6-6
{8}
н/о н/о +0.5 -4 -4 1036.6 823.2 -2.1 +3.5
19 18.04 З 5-6
{7}
н/о н/о -0.1 -5 -5 1037.7 823.6
20 18.04 З 5-6
{6}
н/о н/о -0.6 -5 -5 1038.5 823.9
21 18.04 штиль 0-5
{5}
н/о н/о -0.4 0 0 1038.4 824.0
22 18.04 Ю 1-1
{2}
н/о н/о -0.5 -1 -1 1038.6 824.1
23 18.04 штиль 0-1
{2}
н/о н/о -0.2 0 0 1038.6 824.2
00 19.04 Ю 2-1
{7}
н/о н/о -0.6 -3 -3 1038.7 824.0
01 19.04 Ю 3-3
{4}
н/о н/о -1.0 -4 -4 1038.8 823.8
02 19.04 Ю 1-4
{4}
н/о н/о -0.3 -1 -1 1038.1 823.8
03 19.04 ЮВ 2-2
{3}
н/о н/о -0.5 -3 -3 1038.1 823.7
04 19.04 штиль 0-2
{2}
н/о н/о -0.2 1037.7 823.6
05 19.04 В 1-2
{2}
н/о н/о +0.1 -0 -0 1037.7 823.8
06 19.04 С 1-2
{4}
н/о н/о -0.1 1038.2 824.0 -1.4 +0.5 116
07 19.04 В 1-2
{3}
н/о н/о +0.9 +1 +1 1037.4 824.1
08 19.04 СВ 1-2
{2}
н/о н/о +1.3 +1 +1 1037.4 824.3
09 19.04 ЮВ 2-2
{2}
н/о н/о +1.8 0 0 1037.2 824.5
10 19.04 СВ 1-2
{2}
н/о н/о +2.2 +2 +2 1036.8 824.5
11 19.04 ЮВ 2-2
{3}
н/о н/о +2.2 +1 +1 1036.3 824.2
12 19.04 С 1-4
{4}
н/о н/о +2.6 +3 +3 1036.2 824.2
13 19.04 С 1-1
{3}
н/о н/о +2.3 +2 +2 1036.0 824.0
14 19.04 СВ 1-3
{3}
н/о н/о +3.6 +4 +4 1035.0 823.9
15 19.04 В 1-2
{3}
н/о н/о +2.7 +3 +3 1035.4 823.6
16 19.04 В 2-2
{3}
н/о н/о +1.8 0 0 1035.8 823.4
17 19.04 Ю 2-2
{3}
н/о н/о +1.1 -1 -1 1036.0 823.1
18 19.04 Ю 2-2
{3}
н/о н/о +1.2 -1 -1 1035.8 823.0 -0.6 +4.2
19 19.04 Ю 2-3
{3}
н/о н/о +0.1 -2 -2 1036.6 822.9
20 19.04 Ю 3-2
{4}
н/о н/о 0.0 -3 -3 1036.3 822.6
21 19.04 Ю 2-3
{4}
н/о н/о +0.3 -2 -2 1035.7 822.3
22 19.04 Ю 3-3
{5}
н/о н/о +0.2 -3 -3 1035.5 822.0
23 19.04 СЗ 1-4
{4}
н/о н/о 0.0 -0 -0 1035.4 821.9
00 20.04 штиль 0-1
{5}
н/о н/о +0.2 +1 +1 1034.7 821.4
01 20.04 СВ 2-2
{5}
н/о н/о -0.1 -2 -2 1034.3 821.0
02 20.04 СВ 1-2
{4}
н/о н/о -0.3 -1 -1 1034.3 820.7
03 20.04 С 1-4
{5}
н/о н/о -0.8 -1 -1 1034.2 820.4
04 20.04 ЮЗ 8-8
{12}
н/о н/о +0.5 -5 -5 1032.5 820.0
05 20.04 ЮЗ 6-9
{11}
н/о н/о +1.2 -3 -3 1031.6 819.7
06 20.04 ЮЗ 7-11
{15}
н/о н/о +1.9 -3 -3 1030.6 819.4 -1.4 +2.2 116
07 20.04 ЮЗ 9-13
{15}
н/о н/о +2.3 -3 -3 1030.2 819.2
08 20.04 З 8-14
{16}
н/о н/о +1.8 -3 -3 1030.8 819.3
09 20.04 ЮЗ 10-14
{17}
н/о н/о +3.3 -2 -2 1029.1 819.0
10 20.04 ЮЗ 8-14
{17}
н/о н/о +4.1 -0 -0 1028.3 818.9
11 20.04 ЮЗ 9-14
{16}
н/о н/о +4.7 0 0 1027.6 818.9
12 20.04 ЮЗ 6-17
{17}
н/о н/о +4.6 +1 +1 1027.9 818.9
13 20.04 З 5-10
{11}
н/о н/о +3.7 0 0 1028.5 818.9
14 20.04 ЮЗ 7-11
{17}
н/о н/о +3.9 -0 -0 1027.5 818.2
15 20.04 ЮЗ 12-13
{21}
н/о н/о +3.1 -3 -3 1027.4 817.6
16 20.04 ЮЗ 14-18
{20}
н/о н/о +2.9 -4 -4 1026.7 817.0
17 20.04 З 9-21
{21}
н/о н/о +2.2 -3 -3 1027.8 817.3
18 20.04 З 16-17
{23}
н/о н/о +2.1 -5 -5 1026.6 816.1 +1.1 +5.4
19 20.04 ЮЗ 12-20
{21}
н/о н/о +2.7 -3 -3 1025.6 815.9
20 20.04 З 12-21
{21}
н/о н/о +1.3 -5 -5 1026.5 815.7
21 20.04 ЮЗ 11-18
{19}
н/о н/о +1.8 -4 -4 1025.7 815.3
22 20.04 З 9-17
{18}
н/о н/о +1.4 -4 -4 1025.9 815.4
23 20.04 ЮЗ 9-19
{20}
н/о н/о +1.0 -5 -5 1025.5 814.7
00 21.04 ЮЗ 10-15
{21}
н/о н/о +0.4 -6 -6 1025.3 814.1
01 21.04 ЮЗ 7-18
{19}
н/о н/о +1.5 -3 -3 1023.5 813.4
02 21.04 ЮЗ 8-12
{17}
н/о н/о +1.7 -4 -4 1022.3 812.6
03 21.04 ЮЗ 8-18
{19}
н/о н/о +0.8 -5 -5 1022.9 812.1
04 21.04 ЮЗ 7-12
{16}
н/о н/о +0.9 -4 -4 1021.7 811.6
05 21.04 З 5-17
{17}
н/о н/о +0.4 -4 -4 1021.7 811.2
06 21.04 З 7-13
{19}
н/о н/о +0.8 -4 -4 1020.9 810.9 -0.3 +3.0 116
07 21.04 З 6-10
{12}
н/о н/о +1.4 -3 -3 1020.0 810.5
08 21.04 ЮЗ 7-9
{16}
н/о н/о +1.8 -3 -3 1019.2 810.2
09 21.04 З 7-17
{18}
н/о н/о +1.0 -4 -4 1019.2 809.8
10 21.04 ЮЗ 16-22
{28}
н/о н/о +2.0 -5 -5 1017.3 808.9
11 21.04 ЮЗ 16-23
{28}
н/о н/о +1.5 -6 -6 1016.9 808.2
12 21.04 ЮЗ 11-25
{28}
н/о н/о +1.6 -5 -5 1017.1 808.4
13 21.04 ЮЗ 9-21
{21}
н/о н/о +0.6 -5 -5 1018.3 808.6
14 21.04 ЮЗ 11-20
{22}
н/о н/о +0.6 -6 -6 1017.5 808.1
15 21.04 ЮЗ 12-19
{24}
н/о н/о +1.6 -5 -5 1016.4 807.8
16 21.04 ЮЗ 12-18
{23}
н/о н/о +2.0 -4 -4 1016.1 807.8
17 21.04 ЮЗ 17-22
{29}
н/о н/о +2.6 -5 -5 1014.9 807.3
18 21.04 ЮЗ 16-26
{29}
н/о н/о +2.7 -4 -4 1014.9 807.4 -0.3 +2.8
19 21.04 З 3-23
{23}
н/о н/о +2.1 -0 -0 1017.0 808.7
20 21.04 ЮЗ 8-10
{17}
н/о н/о +2.6 -2 -2 1016.6 808.6
21 21.04 ЮЗ 7-18
{21}
н/о н/о +3.1 -1 -1 1016.2 808.7
22 21.04 З 6-11
{11}
н/о н/о +2.2 -2 -2 1017.0 808.7
23 21.04 З 5-11
{16}
н/о н/о +2.3 -2 -2 1017.2 808.9
00 22.04 Ю 2-10
{23}
н/о н/о +1.4 -0 -0 1018.0 809.0
01 22.04 Ю 6-4
{12}
н/о н/о +3.7 -0 -0 1016.0 808.7
02 22.04 ЮЗ 8-17
{18}
н/о н/о +4.4 -0 -0 1014.9 808.5
03 22.04 З 5-16
{16}
н/о н/о +4.0 +1 +1 1015.4 808.5
04 22.04 С 2-11
{11}
н/о н/о +2.8 +1 +1 1016.4 808.7
05 22.04 ЮЗ 11-9
{17}
н/о н/о +5.7 +1 +1 1013.9 808.5
06 22.04 Ю 9-17
{18}
н/о н/о +5.7 +1 +1 1014.3 808.9 +0.7 +6.0 116
07 22.04 ЮЗ 9-12
{14}
н/о н/о +5.8 +1 +1 1014.9 809.4
08 22.04 Ю 11-12
{14}
н/о н/о +6.1 +1 +1 1014.6 809.4
09 22.04 Ю 5-12
{12}
н/о н/о +6.5 +4 +4 1015.0 810.0
10 22.04 Ю 7-11
{17}
н/о н/о +6.8 +3 +3 1014.8 810.1
11 22.04 Ю 8-10
{14}
н/о н/о +6.7 +3 +3 1015.0 810.0
12 22.04 Ю 8-13
{17}
н/о н/о +7.0 +3 +3 1015.1 810.4
13 22.04 ЮЗ 7-11
{14}
н/о н/о +8.0 +5 +5 1014.7 810.5
14 22.04 Ю 5-9
{10}
н/о н/о +7.2 +5 +5 1015.3 810.5
15 22.04 Ю 5-6
{8}
н/о н/о +5.3 +2 +2 1016.8 810.5
16 22.04 Ю 6-7
{9}
н/о н/о +4.6 +1 +1 1017.1 810.4

 

Местоположение метеостанции Юввассу (Норвегия): широта 61.68 долгота 8.37 высота над уровнем моря 1894 м.

В архиве по умолчанию представлена погода в Юввассу за последнюю неделю. Архивные данные за месяц целиком и за предыдущие месяцы, начиная с января 2011 года, Вы можете получить, выбрав интересующий диапазон дат из раскрывающегося списка и нажав кнопку "Ввод!".


*Определитесь, кто Вы:
робот инопланетянин человек

Внимание! Время в таблицах - всемирное. Для получения местного времени необходимо прибавить поправку, которая равна 1 ч.

Смотрите также архив погоды в соседних городах и на ближайших метеорологических станциях:

Погода в Сонгфельсхутте (Норвегия) (23 км)
Погода в Брате (Норвегия) (36 км)
Погода в Гротли (Норвегия) (53 км)
Погода в Бейтостолене (Норвегия) (56 км)
Погода в Скабу (Норвегия) (57 км)
Погода в Филефеле (Норвегия) (57 км)
Погода в Домбасе (Норвегия) (59 км)
Погода в Бьорли (Норвегия) (65 км)
Погода в Фокстугу (Норвегия) (68 км)
Погода в Локен и Волбу (Норвегия) (72 км)

Пояснения к столбцам:

Ветер - указаны скорость ветра в м/с - средняя за 10 мин, порывы в срок и между сроками (в фигурных скобках) и направление, откуда дует ветер: С - северный, СВ - северо-восточный, В - восточный, ЮВ - юго-восточный, Ю - южный, ЮЗ - юго-западный, З - западный, СЗ - северо-западный.
Видимость - горизонтальная дальность видимости в метрах или километрах. При видимости от 1 до 10 км при отсутствии осадков обычно наблюдается дымка, при ухудшении видимости до 1 км и менее - туман. В сухую погоду видимость может ухудшаться дымом, пылью или мглою.
Явления - указаны атмосферные явления, наблюдавшиеся в срок или в последний час перед сроком; фигурными скобками обозначены явления, наблюдавшиеся между сроками (за 1-3 часа до срока); квадратными скобками обозначены град или гололедные отложения с указанием их диаметра в мм.
Облачность - указаны через наклонную черту общая и нижняя облачность в баллах и высота нижней границы облаков в метрах; квадратными скобками обозначены формы облаков: Ci - перистые, Cs - перисто-слоистые, Cc - перисто-кучевые, Ac - высококучевые, As - высокослоистые, Sc - слоисто-кучевые, Ns - слоисто-дождевые, Cu - кучевые, Cb - кучево-дождевые. Подробнее классификацию облаков см. в Атласе облаков (PDF).
T - Температура воздуха - температура, измеренная на высоте 2 м над землей.
Td - Температура точки росы - температура, при понижении до которой содержащийся в воздухе водяной пар достигнет насыщения.
f - Относительная влажность воздуха - влажноcть воздуха, измеренная на высоте 2 м над землей.
Te - Эффективная температура - температура, которую ощущает одетый по сезону человек в тени. Характеристика душности погоды. При расчете учитывается влияние влажности воздуха и скорости ветра на теплоощущения человека.
Tes - Эффективная температура на солнце - температура, которую ощущает человек, с поправкой на солнечный нагрев. Характеристика знойности погоды. Зависит от высоты солнца над горизонтом, облачности и скорости ветра. Ночью, в пасмурную погоду, а также при ветре 12 м/с и более поправка равна нулю.
P - Атмосферное давление - приведенное к уровню моря атмосферное давление.
Po - Атмосферное давление - измеренное на уровне метеостанции атмосферное давление.
Tmin - Минимальная температура - минимум температуры воздуха на высоте 2 м над землей.
Tmax - Максимальная температура - максимум температуры воздуха на высоте 2 м над землей.
R - Количество осадков - Количество выпавших осадков за период времени, мм. При наведении курсора мыши на число - период времени, за который выпало указанное количество осадков.
R24 - Количество осадков - Количество выпавших осадков за 24 часа, мм.
S - Снежный покров - Высота снежного покрова, см. При наведении курсора мыши на число - состояние снежного покрова и степень покрытия местности в баллах.